Wind_Speed
38 36 35 34 33 32 32 32 33 32 30 26 26 27 27 28 30 31 32 34 36 39 44 48 51 55 58 60 62 62 61 61 61 59 58 57 55 55 54 52 52 51 49 47
37 35 35 34 32 31 31 32 33 32 29 26 27 28 29 30 32 33 33 34 36 39 42 46 49 52 56 58 60 61 61 60 60 60 60 58 56 56 56 53 52 51 50 47
36 34 35 32 28 29 30 30 31 31 29 28 28 28 29 31 31 33 33 34 36 39 41 44 46 49 53 57 58 59 60 60 60 60 59 58 56 56 56 54 52 51 50 48
37 35 34 31 28 28 28 28 29 29 28 28 28 28 29 30 31 32 33 34 35 37 40 43 45 48 51 54 57 58 58 59 58 58 57 57 58 57 56 54 53 51 49 48
36 36 34 28 26 27 27 26 26 26 26 26 26 27 27 29 30 31 33 35 35 36 39 43 45 47 49 52 55 56 57 57 57 57 55 55 56 56 56 54 53 52 49 47
35 34 33 28 27 27 27 24 22 24 24 24 25 26 25 27 29 30 31 34 35 36 39 41 43 45 48 50 52 54 55 55 56 57 55 55 55 54 54 52 51 51 50 48
33 34 32 28 26 25 25 24 22 23 23 24 25 25 25 27 28 29 30 33 34 36 39 41 43 44 45 48 51 53 54 55 55 55 55 54 54 54 53 51 50 50 49 49
32 33 31 28 27 26 25 25 24 24 23 24 24 25 25 26 28 29 30 32 34 35 37 41 42 43 44 46 49 52 54 54 54 54 55 54 53 53 53 51 50 50 47 47
32 31 30 30 29 28 27 26 25 25 24 24 25 25 25 26 28 30 30 31 32 33 34 38 41 42 44 45 47 49 52 54 55 54 53 54 53 52 53 51 48 48 46 46
32 29 29 30 30 29 29 27 26 26 25 25 25 25 25 25 26 29 31 32 33 33 34 36 39 40 43 45 45 47 49 51 53 53 52 52 53 52 52 51 49 47 46 44
31 29 30 30 31 31 30 29 28 27 27 27 26 25 26 25 26 28 30 32 33 34 35 35 37 39 42 44 44 45 47 48 49 50 50 51 51 51 50 49 48 47 47 45
31 30 31 30 31 31 31 30 30 29 28 27 27 27 27 27 27 28 30 31 33 35 36 36 37 38 40 41 42 43 45 47 47 48 49 49 49 49 49 48 47 46 45 44
32 32 32 31 31 31 32 31 31 31 30 29 29 29 28 28 28 29 30 32 33 35 35 35 36 38 39 40 41 42 43 44 46 46 47 47 47 47 47 47 47 45 43 42
32 32 31 31 31 31 32 32 31 30 29 28 28 27 27 27 27 28 30 31 33 34 35 36 37 37 39 40 40 41 42 43 44 44 45 45 46 46 46 46 45 44 42 40
30 30 29 29 29 29 30 29 28 27 27 26 26 26 26 25 26 27 29 31 33 34 35 36 37 38 39 40 40 40 41 42 43 43 44 43 43 44 44 44 44 43 42 40
27 27 27 26 26 26 26 26 25 24 25 26 26 26 25 24 25 26 28 30 32 33 34 35 37 38 40 40 40 40 40 41 42 43 43 43 43 44 43 42 41 40 40 40
26 25 25 25 25 25 24 24 24 24 24 24 25 26 25 24 25 25 27 30 31 32 34 35 36 38 40 41 41 41 41 41 43 43 43 43 44 44 43 41 40 39 39 38
24 23 22 22 22 21 21 21 22 22 22 22 22 23 24 24 24 25 27 29 30 31 33 34 36 38 39 40 41 41 42 43 43 43 43 43 43 43 42 41 39 38 37 36
23 22 21 21 20 19 19 19 20 20 20 19 19 20 21 22 24 26 27 29 29 30 32 33 34 37 38 40 40 41 42 42 43 43 44 43 43 43 43 41 39 37 36 34
22 21 20 19 18 18 17 17 17 17 17 17 17 18 19 20 21 24 26 26 28 30 32 33 34 36 38 40 40 41 40 41 41 42 42 42 41 41 40 38 37 37 35 33
21 20 18 17 16 15 14 14 14 14 14 14 15 16 17 19 20 22 24 26 28 31 32 33 33 35 38 39 40 40 40 40 40 39 39 40 40 39 38 37 36 35 34 32
19 18 17 15 13 13 12 11 11 11 12 12 13 15 16 18 19 20 23 26 28 30 31 33 33 35 37 38 38 39 39 38 38 38 38 38 38 37 35 35 34 34 33 31
18 16 14 13 12 11 11 10 9 8 9 10 12 14 16 17 19 21 23 25 27 28 30 32 34 36 38 37 37 38 38 38 38 38 37 36 36 35 34 34 33 33 31 30
16 15 13 11 10 9 8 7 7 7 8 9 11 13 15 18 20 22 23 25 27 29 30 32 34 36 37 37 37 38 38 38 37 36 35 35 35 35 34 34 33 32 31 29
14 12 11 10 8 8 7 6 7 7 8 8 10 13 15 17 19 22 24 25 27 30 32 33 35 35 35 35 36 37 37 37 36 36 36 35 35 35 34 32 32 31 30 29
11 10 9 8 7 6 6 7 7 7 8 9 10 13 15 17 19 21 23 25 28 31 33 34 34 34 34 34 35 35 35 36 36 36 35 34 33 33 32 31 30 29 29 28
8 8 7 7 6 6 6 7 7 8 9 9 11 13 15 18 20 21 23 26 29 31 33 33 33 33 33 34 34 34 34 34 34 34 34 33 33 32 31 29 28 28 26 25
Wind_Direction
300 298 295 294 292 288 283 280 276 273 272 270 262 258 253 245 239 236 234 233 230 226 223 221 220 219 219 218 217 217 218 219 219 221 221 221 223 223 224 227 228 229 231 234
297 295 293 294 294 289 283 279 276 275 272 267 261 258 253 246 241 239 236 233 229 226 224 222 220 220 219 219 219 218 218 219 219 221 222 223 224 224 225 226 228 229 231 234
296 295 292 295 297 290 285 279 274 271 270 265 260 258 255 249 243 240 237 233 229 226 224 223 222 221 221 220 219 219 219 219 220 221 222 223 224 224 225 226 228 229 231 233
295 293 291 298 295 290 286 281 274 270 269 266 263 258 255 249 244 241 238 235 231 227 225 223 222 222 221 221 220 220 219 220 221 221 221 222 224 225 225 226 228 230 231 232
293 292 293 294 294 290 287 283 276 271 268 265 263 258 254 250 245 242 239 235 233 230 227 224 222 222 221 220 219 219 220 221 222 222 222 223 224 225 226 227 228 229 230 232
290 289 291 294 291 288 285 284 276 270 268 266 263 260 253 248 245 241 238 235 234 232 229 226 224 222 221 220 219 219 219 220 221 222 223 223 223 224 226 226 228 229 229 232
288 286 288 293 290 288 284 283 276 272 270 267 264 261 253 247 243 239 237 235 233 231 228 226 224 222 221 220 219 218 218 219 220 221 221 222 223 224 225 226 227 228 230 231
287 285 288 288 286 284 282 279 277 273 270 267 264 260 255 250 244 240 236 234 232 230 227 224 223 222 221 219 218 218 217 218 218 219 219 221 222 224 224 225 227 227 229 231
287 286 285 283 282 280 279 279 276 272 269 266 263 259 257 253 248 243 238 234 231 228 225 223 222 222 221 218 217 217 216 216 217 218 219 220 221 222 224 225 226 228 229 231
287 285 282 280 278 277 277 277 275 273 269 265 262 259 258 254 249 244 240 234 229 225 223 222 222 221 220 218 216 215 214 215 216 217 218 219 220 221 223 225 227 229 231 232
286 284 280 279 277 276 276 274 273 271 269 265 262 259 258 254 248 244 240 233 227 224 223 222 220 218 217 215 214 215 214 213 213 214 216 218 219 220 221 224 226 228 230 233
287 284 281 279 278 277 275 272 269 268 267 265 262 259 258 254 247 242 237 232 228 224 221 220 218 215 214 214 214 214 214 213 214 214 214 215 217 218 219 221 224 226 227 230
287 284 282 281 279 278 275 272 269 267 266 265 261 260 259 255 247 241 235 229 224 222 219 217 215 212 213 214 214 214 213 212 213 213 213 213 215 216 218 220 221 223 225 226
287 286 283 281 280 279 276 272 269 267 265 262 259 259 257 253 245 238 234 227 223 220 217 216 214 213 213 212 213 212 212 211 212 213 213 213 213 214 216 217 219 220 222 224
288 288 287 283 282 280 277 272 268 264 261 259 259 257 256 252 242 235 230 224 220 217 214 213 212 212 212 212 212 211 210 210 210 212 213 213 212 212 213 216 217 220 221 222
289 289 288 287 283 281 278 272 267 263 261 258 257 255 252 247 241 235 228 222 219 216 214 211 211 210 210 210 210 209 209 209 209 210 212 213 212 213 214 216 217 218 219 222
290 289 288 287 285 282 277 270 265 264 263 261 257 254 248 244 238 233 226 220 218 215 213 211 209 209 209 209 208 208 208 208 207 208 209 211 212 214 215 217 216 216 217 220
291 291 290 290 288 285 279 271 265 262 262 260 256 251 244 238 233 229 224 219 216 214 211 209 209 208 207 207 206 207 206 206 207 207 207 208 210 212 214 215 215 216 218 219
292 291 291 291 290 287 280 273 265 261 259 257 253 246 239 231 226 224 221 218 214 211 208 207 206 205 204 204 204 205 204 205 205 205 205 207 209 211 211 212 214 216 218 218
292 292 291 290 289 286 281 272 266 262 258 253 247 241 234 226 222 218 215 211 208 207 206 204 203 202 201 201 201 201 201 200 201 203 204 204 205 206 207 210 213 215 216 217
293 290 288 289 287 285 281 272 265 260 256 250 242 235 228 221 216 211 207 205 204 203 204 202 200 199 199 198 197 197 197 197 198 200 203 203 204 206 208 208 210 212 213 215
294 290 287 285 280 280 279 273 266 258 251 242 233 227 221 216 211 205 201 199 198 199 199 198 196 195 193 192 192 194 195 196 197 198 200 201 201 202 203 205 207 209 210 213
294 289 285 280 276 275 272 265 258 250 242 231 221 217 213 210 205 200 196 194 193 195 194 192 191 190 189 189 189 190 191 192 192 194 196 197 198 200 202 203 205 206 208 211
292 286 280 276 273 268 261 252 242 236 229 221 211 206 202 201 199 196 194 192 191 189 188 186 186 185 185 185 187 188 190 190 192 195 197 198 200 200 200 201 203 205 207 210
286 281 275 269 263 257 248 238 229 224 218 214 205 199 195 194 194 194 191 188 187 185 185 184 182 181 182 184 186 188 189 191 194 196 197 197 198 198 198 200 202 203 205 209
279 271 265 259 250 241 233 223 215 209 206 203 198 192 189 186 185 185 184 183 183 183 183 183 181 180 181 183 185 186 188 190 191 191 192 193 194 196 197 198 200 202 204 207
267 256 249 243 236 228 218 208 203 199 196 192 188 184 180 177 176 177 177 177 177 178 179 179 179 179 179 180 182 184 185 187 187 188 190 191 192 192 193 197 200 201 203 206
Height
5497 5494 5490 5486 5484 5482 5478 5476 5473 5474 5473 5475 5475 5475 5475 5476 5478 5481 5484 5488 5492 5497 5502 5509 5516 5524 5533 5542 5551 5561 5570 5579 5589 5598 5606 5615 5623 5631 5638 5645 5652 5658 5665 5671
5488 5485 5480 5477 5476 5472 5469 5467 5465 5464 5465 5467 5466 5466 5467 5468 5470 5473 5476 5480 5484 5488 5494 5500 5507 5515 5523 5532 5541 5550 5560 5569 5579 5588 5596 5605 5613 5621 5628 5636 5642 5649 5656 5662
5478 5475 5470 5469 5468 5464 5460 5458 5457 5455 5458 5458 5458 5458 5459 5460 5462 5465 5468 5472 5475 5480 5485 5491 5498 5505 5513 5522 5531 5540 5550 5559 5568 5577 5586 5594 5603 5611 5619 5627 5633 5640 5647 5653
5467 5465 5460 5463 5458 5455 5451 5450 5448 5447 5448 5449 5449 5449 5450 5451 5454 5457 5460 5463 5467 5471 5477 5482 5489 5495 5503 5511 5521 5530 5540 5549 5558 5567 5576 5584 5593 5601 5609 5617 5624 5631 5638 5645
5457 5453 5451 5453 5450 5445 5442 5442 5441 5439 5439 5440 5440 5440 5442 5443 5445 5447 5451 5454 5458 5462 5467 5472 5479 5486 5494 5502 5511 5520 5530 5539 5548 5557 5566 5574 5583 5592 5600 5608 5615 5622 5629 5635
5447 5443 5442 5445 5441 5436 5435 5433 5433 5432 5431 5432 5432 5433 5436 5435 5436 5438 5441 5445 5449 5453 5458 5463 5469 5476 5484 5492 5501 5510 5520 5529 5538 5547 5556 5565 5574 5582 5590 5598 5606 5613 5620 5626
5438 5433 5433 5435 5431 5428 5427 5427 5425 5424 5424 5424 5424 5425 5427 5427 5428 5430 5433 5436 5439 5444 5449 5454 5460 5467 5475 5483 5491 5500 5510 5519 5528 5537 5547 5555 5564 5572 5581 5589 5597 5604 5611 5617
5429 5426 5427 5425 5422 5421 5419 5418 5416 5416 5415 5415 5416 5416 5417 5418 5420 5422 5424 5427 5431 5435 5440 5445 5451 5458 5465 5473 5481 5490 5499 5509 5519 5528 5537 5546 5554 5563 5571 5579 5587 5595 5602 5608
5421 5421 5418 5415 5413 5411 5410 5409 5408 5407 5407 5407 5407 5408 5409 5410 5411 5413 5416 5419 5422 5426 5431 5437 5442 5449 5456 5464 5472 5480 5489 5499 5508 5518 5527 5536 5545 5554 5562 5570 5578 5586 5593 5599
5411 5410 5408 5405 5403 5402 5401 5400 5399 5398 5398 5398 5399 5400 5401 5402 5403 5405 5407 5410 5413 5418 5423 5428 5434 5440 5448 5455 5463 5471 5480 5489 5499 5509 5518 5527 5536 5545 5553 5562 5570 5578 5585 5591
5401 5401 5398 5397 5394 5393 5392 5391 5390 5389 5389 5389 5390 5391 5392 5393 5394 5396 5398 5401 5405 5410 5415 5421 5426 5433 5440 5447 5455 5463 5472 5481 5490 5499 5509 5518 5527 5537 5546 5554 5562 5570 5577 5583
5392 5391 5388 5388 5385 5384 5382 5382 5381 5380 5380 5380 5381 5382 5383 5384 5385 5387 5389 5393 5397 5402 5408 5413 5418 5425 5432 5440 5447 5455 5464 5473 5482 5491 5500 5510 5519 5528 5536 5545 5553 5560 5568 5575
5382 5380 5378 5377 5375 5374 5372 5372 5371 5370 5370 5371 5371 5372 5373 5374 5375 5377 5380 5384 5389 5394 5400 5405 5411 5418 5425 5432 5440 5448 5457 5465 5474 5483 5492 5501 5511 5520 5529 5537 5544 5552 5559 5566
5372 5370 5368 5367 5365 5364 5362 5361 5361 5360 5360 5361 5361 5362 5363 5364 5366 5368 5372 5376 5380 5386 5392 5398 5404 5411 5418 5425 5433 5441 5450 5458 5467 5476 5485 5494 5503 5512 5521 5529 5537 5543 5551 5557
5363 5361 5359 5357 5356 5354 5352 5351 5351 5351 5351 5351 5352 5353 5354 5355 5357 5360 5363 5368 5373 5379 5385 5391 5397 5404 5411 5418 5426 5434 5443 5451 5460 5469 5478 5487 5496 5504 5513 5521 5529 5536 5543 5549
5355 5352 5350 5348 5346 5344 5342 5342 5341 5342 5342 5342 5343 5344 5345 5347 5349 5352 5355 5360 5365 5371 5377 5383 5390 5397 5404 5412 5419 5427 5436 5445 5454 5462 5471 5480 5489 5497 5505 5514 5521 5528 5535 5542
5346 5344 5342 5340 5337 5335 5334 5333 5333 5333 5333 5333 5334 5335 5336 5339 5341 5344 5348 5352 5357 5363 5369 5376 5383 5390 5397 5405 5413 5421 5430 5438 5446 5455 5464 5473 5482 5490 5499 5507 5514 5521 5528 5535
5338 5336 5334 5331 5329 5327 5326 5325 5324 5324 5325 5325 5326 5327 5328 5331 5334 5337 5341 5345 5350 5356 5362 5369 5375 5383 5390 5398 5406 5414 5423 5431 5440 5449 5458 5466 5475 5484 5492 5499 5507 5514 5521 5527
5331 5328 5326 5324 5322 5320 5319 5318 5317 5317 5317 5318 5318 5320 5321 5324 5327 5330 5334 5339 5344 5350 5356 5362 5369 5376 5384 5392 5400 5408 5417 5425 5434 5443 5451 5460 5468 5477 5485 5493 5501 5508 5515 5521
5323 5321 5318 5316 5315 5313 5312 5311 5310 5311 5311 5311 5312 5313 5315 5318 5321 5324 5328 5333 5338 5344 5350 5357 5363 5371 5378 5386 5394 5403 5411 5420 5429 5437 5446 5455 5463 5471 5479 5487 5495 5502 5509 5515
5316 5313 5311 5310 5308 5307 5306 5305 5305 5305 5305 5305 5306 5308 5310 5313 5316 5319 5323 5329 5334 5340 5346 5352 5359 5367 5374 5382 5390 5399 5407 5416 5424 5433 5441 5449 5458 5466 5474 5482 5489 5496 5503 5509
5309 5307 5305 5304 5303 5302 5301 5300 5300 5300 5300 5301 5302 5304 5306 5309 5312 5316 5320 5325 5330 5336 5342 5349 5356 5363 5371 5379 5387 5395 5404 5412 5421 5429 5437 5446 5454 5461 5469 5477 5484 5491 5498 5504
5303 5301 5300 5299 5298 5297 5296 5296 5296 5296 5296 5297 5299 5300 5303 5306 5309 5313 5318 5323 5328 5333 5339 5346 5353 5360 5368 5376 5385 5393 5401 5409 5418 5426 5434 5442 5450 5457 5465 5472 5479 5486 5493 5499
5297 5296 5295 5294 5294 5293 5293 5292 5292 5293 5294 5295 5296 5298 5300 5303 5307 5311 5316 5320 5325 5331 5337 5344 5351 5359 5366 5374 5383 5391 5399 5407 5415 5423 5431 5438 5446 5453 5460 5467 5474 5481 5488 5494
5292 5292 5291 5290 5290 5290 5290 5290 5290 5291 5292 5293 5295 5296 5298 5301 5305 5309 5313 5318 5324 5330 5337 5344 5351 5358 5365 5373 5381 5389 5397 5405 5413 5420 5428 5435 5442 5450 5457 5464 5470 5477 5483 5489
5288 5288 5288 5287 5287 5287 5287 5288 5289 5289 5290 5292 5293 5295 5297 5300 5304 5308 5312 5318 5323 5329 5337 5344 5351 5358 5365 5372 5380 5387 5395 5403 5410 5418 5425 5432 5440 5447 5454 5460 5467 5473 5479 5484
5285 5285 5285 5285 5285 5285 5285 5286 5287 5288 5290 5291 5293 5295 5297 5301 5304 5308 5313 5318 5324 5330 5337 5344 5351 5358 5365 5372 5379 5386 5394 5401 5409 5416 5423 5430 5437 5444 5451 5457 5463 5469 5474 5480